Location: Forli
(44.2227°N, 12.0407°E)
Time: 03:05:06
(UTC+02:00)

DX 1 - Pass Details

Date: 20 April 2026
Orbit: 593 x 604 km, 98.4° (Epoch: 19 May)

Event Time Altitude Azimuth Distance (km) Brightness Sun altitude
Rises 05:43:00 0° 354° (N) 2,842 ? -7.1°
Reaches altitude 10° 05:46:13 10° 327° (NNW) 1,935 ? -6.6°
Maximum altitude 05:48:08 13° 300° (WNW) 1,739 ? -6.2°
Drops below altitude 10° 05:50:04 10° 272° (W) 1,929 ? -5.9°
Enters shadow 05:51:16 - 259° (W) 2,207 ? -5.7°
